Content
SEND FEEDBACK

Daily
Averages
Monthly
Summary
United States of America

CARNELIAN BAY, CALIFORNIA


Home > North America > United States > California
Elevation: 6258 feet     Latitude: 39 19N     Longitude: 120 14W

WEATHER
 
SELECT A DAY
Number of Records: 286,455;   Date Range: 1/1/95 - 9/29/14
 
SHARE

PRINT THIS DATA

[ ← Previous Day ]
WEATHER ALMANAC - OCTOBER 25, 2013
[ Next Day → ]
[ °C ]   °F
Weather ElementAverageHighLow
Temperature36.5 °F66.2 °F (2:45 pm)21.2 °F (5:55 am)
Dewpoint16.5 °F19.4 °F (10:55 am)8.6 °F (1:50 pm)
Humidity49.9 %80 % (5:55 am)11 % (1:50 pm)
Barometer30.33 in30.37 in (8:45 am)30.29 in (2:45 pm)
Wind Speed1.2 mph8.1 mph (5:45 pm)
Weather ElementAverage
Visibility9.8 mi
Wind DirectionENE (53.7 °)

Weather ElementTotal
Precipitation---
Heating Degree Days21.3 (Base 65)
Averaged from 49 records on October 25, 2013
WEATHER CONDITIONS BREAKOUT
WIND DIRECTION BREAKOUT
WEATHER BY HOUR - OCTOBER 25, 2013
[ °C ]   °F
Local TimeTemperatureDewpointHumidityBarometerVisibilityWind DirectionWind SpeedGust SpeedPrecipitationEventsConditions
12:35 AM28.4 °F15.8 °F59 %30.30 in10.0 miCalmClear
12:55 AM30.2 °F14.0 °F51 %30.30 in10.0 miCalmClear
1:15 AM28.4 °F15.8 °F59 %30.30 in10.0 miCalmClear
1:35 AM30.2 °F15.8 °F55 %30.30 in10.0 miCalmClear
1:55 AM28.4 °F15.8 °F59 %30.30 in10.0 miCalmClear
2:15 AM26.6 °F15.8 °F64 %30.31 in10.0 miCalmClear
2:35 AM26.6 °F15.8 °F64 %30.31 in10.0 miCalmClear
2:55 AM28.4 °F15.8 °F59 %30.31 in10.0 miCalmClear
3:15 AM24.8 °F15.8 °F69 %30.31 in10.0 miCalmClear
3:35 AM24.8 °F15.8 °F69 %30.31 in10.0 miCalmClear
3:55 AM24.8 °F15.8 °F69 %30.31 in10.0 miCalmClear
4:15 AM24.8 °F15.8 °F69 %30.32 in10.0 miCalmClear
4:35 AM24.8 °F15.8 °F69 %30.32 in10.0 miCalmClear
4:55 AM24.8 °F15.8 °F69 %30.32 in10.0 miCalmClear
5:15 AM24.8 °F15.8 °F69 %30.32 in10.0 miCalmClear
5:35 AM24.8 °F15.8 °F69 %30.33 in10.0 miCalmClear
5:55 AM21.2 °F15.8 °F80 %30.33 in10.0 miCalmClear
6:15 AM23.0 °F15.8 °F74 %30.34 in10.0 miCalmClear
6:35 AM23.0 °F15.8 °F74 %30.34 in10.0 miCalmClear
6:45 AM21.2 °F14.0 °F74 %30.34 in10.0 miCalmClear
7:45 AM21.2 °F14.0 °F74 %30.36 in10.0 miCalmClear
8:45 AM28.4 °F17.6 °F64 %30.37 inCalmClear
9:55 AM37.4 °F17.6 °F45 %30.37 in10.0 miCalmClear
10:55 AM46.4 °F19.4 °F34 %30.36 in10.0 miCalmClear
11:45 AM53.6 °F19.4 °F26 %30.35 in10.0 miCalmClear
12:45 PM62.6 °F12.2 °F14 %30.33 in10.0 miCalmClear
1:50 PM64.4 °F8.6 °F11 %30.30 in10.0 miSouth (190°)3.5 mphClear
2:45 PM66.2 °F10.4 °F11 %30.29 in10.0 miSW (230°)4.6 mphClear
3:50 PM66.2 °F10.4 °F11 %30.29 in10.0 miNW (310°)4.6 mphClear
5:45 PM62.6 °F19.4 °F19 %30.29 in10.0 miWest (270°)8.1 mphClear
5:55 PM59.0 °F19.4 °F22 %30.30 in10.0 miWNW (290°)6.9 mphClear
6:15 PM57.2 °F19.4 °F23 %30.30 in10.0 miEast (100°)3.5 mphClear
6:35 PM48.2 °F15.8 °F27 %30.31 in10.0 miSouth (170°)3.5 mphClear
6:55 PM46.4 °F17.6 °F32 %30.31 in10.0 miSSE (150°)5.8 mphClear
7:15 PM44.6 °F17.6 °F34 %30.32 in10.0 miCalmClear
7:35 PM42.8 °F17.6 °F36 %30.32 in10.0 miSSE (150°)5.8 mphClear
7:55 PM39.2 °F17.6 °F42 %30.33 in10.0 miSouth (190°)3.5 mphClear
8:15 PM41.0 °F19.4 °F42 %30.33 in10.0 miSouth (180°)3.5 mphClear
8:35 PM39.2 °F19.4 °F45 %30.33 in10.0 miSW (230°)3.5 mphClear
8:55 PM41.0 °F19.4 °F42 %30.33 in10.0 miSouth (170°)3.5 mphClear
9:15 PM37.4 °F19.4 °F48 %30.34 in10.0 miCalmClear
9:35 PM35.6 °F19.4 °F52 %30.34 in10.0 miCalmClear
9:55 PM35.6 °F17.6 °F48 %30.35 in10.0 miCalmClear
10:15 PM35.6 °F19.4 °F52 %30.35 in10.0 miCalmClear
10:35 PM32.0 °F17.6 °F55 %30.35 in6.0 miCalmHaze
10:55 PM33.8 °F17.6 °F52 %30.35 in10.0 miCalmClear
11:15 PM33.8 °F17.6 °F52 %30.36 in10.0 miCalmClear
11:35 PM32.0 °F17.6 °F55 %30.36 in5.0 miCalmHaze
11:55 PM32.0 °F17.6 °F55 %30.36 in9.0 miCalmClear
Hourly data recorded from KTRK, located miles away from Carnelian Bay, California







STORIES FROM OUR PARTNERS